| time (UTC) | temp F | wind direction | speed MPH | gust MPH | rain 1hr in | rain 24hr in | rain mn in | humidity % | barometer mb |
| 20260506042703 | 44 | 305 | 3.0 | 7.0 | 0.00 | 0.00 | 0.00 | 85 | 1011.0 |
| 20260506041803 | 44 | 325 | 3.0 | 10.0 | 0.00 | 0.00 | 0.00 | 85 | 1011.0 |
| 20260506040903 | 44 | 315 | 4.0 | 13.0 | 0.00 | 0.00 | 0.00 | 84 | 1010.9 |
| 20260506040003 | 44 | 333 | 4.0 | 12.0 | 0.00 | 0.00 | 0.00 | 84 | 1011.0 |
| 20260506035403 | 44 | 342 | 3.0 | 10.0 | 0.00 | 0.00 | 0.00 | 84 | 1011.0 |
| 20260506034503 | 44 | 338 | 5.0 | 11.0 | 0.00 | 0.00 | 0.00 | 83 | 1011.0 |
| 20260506033603 | 45 | 351 | 3.0 | 8.0 | 0.00 | 0.00 | 0.00 | 83 | 1011.0 |
| 20260506032703 | 45 | 328 | 4.0 | 10.0 | 0.00 | 0.00 | 0.00 | 83 | 1011.0 |
| 20260506031803 | 45 | 322 | 4.0 | 12.0 | 0.00 | 0.00 | 0.00 | 83 | 1011.0 |
| 20260506030903 | 45 | 316 | 4.0 | 12.0 | 0.00 | 0.00 | 0.00 | 83 | 1011.0 |
| 20260506030003 | 45 | 337 | 4.0 | 8.0 | 0.00 | 0.00 | 0.00 | 82 | 1011.1 |
| 20260506025403 | 45 | 359 | 4.0 | 9.0 | 0.00 | 0.00 | 0.00 | 82 | 1011.1 |
| 20260506024503 | 45 | 8 | 3.0 | 9.0 | 0.00 | 0.00 | 0.00 | 82 | 1011.1 |
| 20260506023624 | 45 | 357 | 4.0 | 11.0 | 0.00 | 0.00 | 0.00 | 82 | 1011.2 |
| 20260506022703 | 45 | 1 | 4.0 | 10.0 | 0.00 | 0.00 | 0.00 | 82 | 1011.1 |
| 20260506021803 | 45 | 354 | 4.0 | 11.0 | 0.00 | 0.00 | 0.00 | 81 | 1011.2 |
| 20260506020903 | 46 | 352 | 4.0 | 11.0 | 0.00 | 0.00 | 0.00 | 82 | 1011.2 |
| 20260506020024 | 46 | 354 | 4.0 | 11.0 | 0.00 | 0.00 | 0.00 | 81 | 1011.3 |
| 20260506015403 | 46 | 358 | 4.0 | 11.0 | 0.00 | 0.00 | 0.00 | 81 | 1011.3 |
| 20260506014503 | 46 | 4 | 3.0 | 8.0 | 0.00 | 0.00 | 0.00 | 81 | 1011.2 |
| 20260506013603 | 46 | 10 | 4.0 | 11.0 | 0.00 | 0.00 | 0.00 | 80 | 1011.2 |
| 20260506012703 | 46 | 356 | 3.0 | 10.0 | 0.00 | 0.00 | 0.00 | 80 | 1011.3 |
| 20260506011803 | 46 | 12 | 3.0 | 8.0 | 0.00 | 0.00 | 0.00 | 80 | 1011.4 |
| 20260506010903 | 46 | 12 | 4.0 | 10.0 | 0.00 | 0.00 | 0.00 | 79 | 1011.4 |
| 20260506010003 | 46 | 23 | 5.0 | 12.0 | 0.00 | 0.00 | 0.00 | 79 | 1011.3 |
| 20260506005403 | 46 | 22 | 6.0 | 11.0 | 0.00 | 0.00 | 0.00 | 79 | 1011.3 |
| 20260506004503 | 46 | 13 | 6.0 | 15.0 | 0.00 | 0.00 | 0.00 | 78 | 1011.3 |
| 20260506003603 | 47 | 6 | 6.0 | 14.0 | 0.00 | 0.00 | 0.00 | 78 | 1011.5 |
| 20260506002703 | 47 | 2 | 4.0 | 12.0 | 0.00 | 0.00 | 0.00 | 78 | 1011.4 |
| 20260506001803 | 47 | 358 | 4.0 | 11.0 | 0.00 | 0.00 | 0.00 | 79 | 1011.5 |
| 20260506000924 | 47 | 10 | 4.0 | 10.0 | 0.00 | 0.00 | 0.00 | 80 | 1011.5 |
| 20260506000024 | 48 | 16 | 3.0 | 11.0 | 0.00 | 0.00 | 0.00 | 81 | 1011.4 |
| 20260505235403 | 48 | 13 | 4.0 | 11.0 | 0.00 | 0.00 | 0.00 | 81 | 1011.4 |
| 20260505234503 | 48 | 25 | 4.0 | 10.0 | 0.00 | 0.00 | 0.00 | 81 | 1011.5 |
| 20260505233624 | 48 | 20 | 4.0 | 10.0 | 0.00 | 0.00 | 0.00 | 81 | 1011.6 |
| 20260505232703 | 48 | 10 | 4.0 | 11.0 | 0.00 | 0.00 | 0.00 | 81 | 1011.7 |
| 20260505231803 | 48 | 11 | 5.0 | 12.0 | 0.00 | 0.00 | 0.00 | 81 | 1011.6 |
| 20260505230903 | 48 | 358 | 4.0 | 10.0 | 0.00 | 0.00 | 0.00 | 80 | 1011.7 |
| 20260505230004 | 48 | 10 | 3.0 | 9.0 | 0.00 | 0.00 | 0.00 | 79 | 1011.8 |
| 20260505225403 | 48 | 18 | 3.0 | 9.0 | 0.00 | 0.00 | 0.00 | 79 | 1011.8 |
| 20260505224503 | 48 | 22 | 4.0 | 10.0 | 0.00 | 0.00 | 0.00 | 78 | 1011.7 |
| 20260505223603 | 48 | 17 | 5.0 | 12.0 | 0.00 | 0.00 | 0.00 | 78 | 1011.7 |
| 20260505222703 | 48 | 12 | 6.0 | 14.0 | 0.00 | 0.00 | 0.00 | 77 | 1011.7 |
| 20260505221824 | 48 | 19 | 6.0 | 11.0 | 0.00 | 0.00 | 0.00 | 76 | 1011.6 |
| 20260505220903 | 49 | 25 | 6.0 | 15.0 | 0.00 | 0.00 | 0.00 | 76 | 1011.6 |
| 20260505220003 | 49 | 15 | 5.0 | 13.0 | 0.00 | 0.00 | 0.00 | 79 | 1011.6 |
| 20260505215403 | 49 | 9 | 5.0 | 13.0 | 0.00 | 0.00 | 0.00 | 80 | 1011.5 |
| 20260505214503 | 50 | 2 | 4.0 | 11.0 | 0.00 | 0.00 | 0.00 | 80 | 1011.6 |
| 20260505213603 | 50 | 17 | 7.0 | 14.0 | 0.00 | 0.00 | 0.00 | 81 | 1011.4 |
| 20260505212703 | 50 | 16 | 6.0 | 15.0 | 0.00 | 0.00 | 0.00 | 80 | 1011.3 |
| 20260505211803 | 50 | 23 | 6.0 | 12.0 | 0.00 | 0.00 | 0.00 | 80 | 1011.3 |
| 20260505210903 | 50 | 26 | 7.0 | 14.0 | 0.00 | 0.00 | 0.00 | 79 | 1011.3 |
| 20260505210003 | 51 | 31 | 6.0 | 15.0 | 0.00 | 0.00 | 0.00 | 79 | 1011.2 |
| 20260505205424 | 51 | 25 | 7.0 | 15.0 | 0.00 | 0.00 | 0.00 | 79 | 1011.3 |
| 20260505204524 | 51 | 28 | 6.0 | 13.0 | 0.00 | 0.00 | 0.00 | 79 | 1011.2 |
| 20260505203603 | 51 | 19 | 8.0 | 15.0 | 0.00 | 0.00 | 0.00 | 79 | 1011.1 |
| 20260505202724 | 51 | 21 | 5.0 | 13.0 | 0.00 | 0.00 | 0.00 | 79 | 1011.1 |
| 20260505201803 | 52 | 23 | 6.0 | 14.0 | 0.00 | 0.00 | 0.00 | 80 | 1011.0 |
| 20260505200903 | 52 | 41 | 5.0 | 12.0 | 0.00 | 0.00 | 0.00 | 80 | 1011.0 |
| 20260505200024 | 52 | 42 | 6.0 | 14.0 | 0.00 | 0.00 | 0.00 | 80 | 1010.9 |
| 20260505195403 | 52 | 40 | 7.0 | 13.0 | 0.00 | 0.00 | 0.00 | 79 | 1010.8 |
| 20260505194503 | 52 | 36 | 6.0 | 14.0 | 0.00 | 0.00 | 0.00 | 78 | 1010.7 |
| 20260505193603 | 52 | 39 | 6.0 | 14.0 | 0.00 | 0.00 | 0.00 | 78 | 1010.6 |
| 20260505192703 | 53 | 56 | 6.0 | 13.0 | 0.00 | 0.00 | 0.00 | 77 | 1010.4 |
| 20260505191824 | 54 | 48 | 5.0 | 13.0 | 0.00 | 0.00 | 0.00 | 76 | 1010.3 |
| 20260505190903 | 54 | 35 | 6.0 | 12.0 | 0.00 | 0.00 | 0.00 | 75 | 1010.2 |
| 20260505190024 | 55 | 23 | 5.0 | 12.0 | 0.00 | 0.00 | 0.00 | 74 | 1010.1 |
| 20260505185403 | 55 | 25 | 5.0 | 11.0 | 0.00 | 0.00 | 0.00 | 72 | 1010.1 |
| 20260505184503 | 56 | 4 | 4.0 | 10.0 | 0.00 | 0.00 | 0.00 | 67 | 1009.9 |
| 20260505183624 | 56 | 332 | 3.0 | 13.0 | 0.00 | 0.00 | 0.00 | 63 | 1009.8 |
| 20260505182703 | 56 | 314 | 4.0 | 11.0 | 0.00 | 0.00 | 0.00 | 63 | 1009.7 |
| 20260505181803 | 56 | 325 | 4.0 | 10.0 | 0.00 | 0.02 | 0.00 | 63 | 1009.7 |
| 20260505180903 | 56 | 314 | 4.0 | 11.0 | 0.00 | 0.02 | 0.00 | 64 | 1009.7 |
| 20260505180003 | 56 | 314 | 5.0 | 11.0 | 0.00 | 0.02 | 0.00 | 64 | 1009.7 |
| 20260505175424 | 57 | 309 | 5.0 | 15.0 | 0.00 | 0.02 | 0.00 | 63 | 1009.8 |
| 20260505174503 | 57 | 314 | 4.0 | 15.0 | 0.00 | 0.02 | 0.00 | 63 | 1009.6 |
| 20260505173624 | 57 | 316 | 4.0 | 10.0 | 0.00 | 0.02 | 0.00 | 63 | 1009.7 |
| 20260505172703 | 58 | 316 | 4.0 | 10.0 | 0.00 | 0.02 | 0.00 | 62 | 1009.7 |
| 20260505171803 | 58 | 318 | 5.0 | 12.0 | 0.00 | 0.02 | 0.00 | 62 | 1009.7 |
| 20260505170903 | 58 | 325 | 5.0 | 11.0 | 0.00 | 0.02 | 0.00 | 63 | 1009.7 |
| 20260505170003 | 57 | 319 | 5.0 | 12.0 | 0.00 | 0.02 | 0.00 | 63 | 1009.8 |
| 20260505165403 | 57 | 307 | 5.0 | 12.0 | 0.00 | 0.02 | 0.00 | 63 | 1009.8 |
| 20260505164503 | 57 | 299 | 4.0 | 12.0 | 0.00 | 0.02 | 0.00 | 63 | 1009.8 |
| 20260505163603 | 58 | 306 | 5.0 | 13.0 | 0.00 | 0.02 | 0.00 | 63 | 1009.7 |
| 20260505162703 | 58 | 323 | 4.0 | 9.0 | 0.00 | 0.02 | 0.00 | 64 | 1009.7 |
| 20260505161803 | 58 | 315 | 4.0 | 11.0 | 0.00 | 0.02 | 0.00 | 63 | 1009.7 |
| 20260505160924 | 58 | 336 | 5.0 | 12.0 | 0.00 | 0.02 | 0.00 | 63 | 1009.7 |
| 20260505152724 | 58 | 317 | 5.0 | 13.0 | 0.00 | 0.02 | 0.00 | 63 | 1009.9 |
| 20260505151803 | 59 | 303 | 6.0 | 12.0 | 0.00 | 0.02 | 0.00 | 64 | 1009.9 |
| 20260505150903 | 58 | 321 | 6.0 | 15.0 | 0.00 | 0.02 | 0.00 | 63 | 1009.9 |
| 20260505124503 | 58 | 324 | 3.0 | 11.0 | 0.00 | 0.02 | 0.00 | 63 | 1010.2 |
| 20260505123603 | 58 | 325 | 3.0 | 8.0 | 0.00 | 0.02 | 0.00 | 63 | 1010.2 |
| 20260505122703 | 58 | 325 | 3.0 | 6.0 | 0.00 | 0.02 | 0.00 | 63 | 1010.2 |
| 20260505121803 | 58 | 325 | 3.0 | 6.0 | 0.00 | 0.02 | 0.00 | 62 | 1010.2 |
| 20260505120903 | 59 | 325 | 3.0 | 8.0 | 0.00 | 0.02 | 0.00 | 63 | 1010.2 |
| 20260505120004 | 58 | 323 | 2.0 | 6.0 | 0.00 | 0.02 | 0.00 | 61 | 1010.2 |
| 20260505115403 | 59 | 323 | 2.0 | 6.0 | 0.00 | 0.02 | 0.00 | 63 | 1010.2 |
| 20260505114503 | 58 | 323 | 3.0 | 10.0 | 0.00 | 0.02 | 0.00 | 62 | 1010.3 |
| 20260505113603 | 58 | 328 | 4.0 | 11.0 | 0.00 | 0.02 | 0.00 | 62 | 1010.4 |
| 20260505112703 | 59 | 331 | 5.0 | 10.0 | 0.00 | 0.02 | 0.00 | 63 | 1010.3 |
| 20260505111803 | 58 | 327 | 4.0 | 11.0 | 0.00 | 0.02 | 0.00 | 65 | 1010.5 |
| 20260505110903 | 58 | 330 | 4.0 | 8.0 | 0.00 | 0.02 | 0.00 | 66 | 1010.5 |
| 20260505101803 | 58 | 327 | 4.0 | 10.0 | 0.00 | 0.02 | 0.00 | 62 | 1010.8 |
| 20260505100903 | 57 | 329 | 4.0 | 10.0 | 0.00 | 0.02 | 0.00 | 65 | 1010.8 |
| 20260505100003 | 57 | 331 | 4.0 | 10.0 | 0.00 | 0.02 | 0.00 | 65 | 1010.9 |
| 20260505095403 | 56 | 332 | 4.0 | 10.0 | 0.00 | 0.02 | 0.00 | 68 | 1010.9 |
| 20260505094527 | 56 | 334 | 3.0 | 8.0 | 0.00 | 0.02 | 0.00 | 72 | 1010.9 |
| 20260505093603 | 56 | 334 | 4.0 | 11.0 | 0.00 | 0.02 | 0.00 | 73 | 1010.9 |
| 20260505092724 | 55 | 340 | 5.0 | 11.0 | 0.00 | 0.02 | 0.00 | 74 | 1010.9 |
| 20260505091803 | 55 | 341 | 3.0 | 9.0 | 0.00 | 0.02 | 0.00 | 75 | 1010.9 |
| 20260505090924 | 54 | 340 | 4.0 | 9.0 | 0.00 | 0.02 | 0.00 | 77 | 1011.0 |
| 20260505090024 | 54 | 342 | 4.0 | 9.0 | 0.00 | 0.02 | 0.00 | 77 | 1011.1 |
| 20260505085424 | 54 | 343 | 3.0 | 10.0 | 0.00 | 0.02 | 0.00 | 76 | 1011.1 |
| 20260505084503 | 55 | 343 | 4.0 | 10.0 | 0.00 | 0.02 | 0.00 | 75 | 1011.1 |
| 20260505083603 | 54 | 341 | 4.0 | 9.0 | 0.00 | 0.02 | 0.00 | 77 | 1011.0 |
| 20260505082724 | 53 | 340 | 4.0 | 10.0 | 0.00 | 0.02 | 0.00 | 79 | 1011.1 |
| 20260505081803 | 52 | 343 | 4.0 | 10.0 | 0.00 | 0.02 | 0.00 | 81 | 1011.1 |
| 20260505080903 | 52 | 344 | 3.0 | 8.0 | 0.00 | 0.02 | 0.00 | 82 | 1011.2 |
| 20260505080003 | 52 | 344 | 3.0 | 8.0 | 0.00 | 0.02 | 0.00 | 84 | 1011.2 |
| 20260505075403 | 52 | 344 | 4.0 | 9.0 | 0.00 | 0.02 | 0.00 | 84 | 1011.2 |
| 20260505074503 | 51 | 345 | 4.0 | 10.0 | 0.00 | 0.02 | 0.00 | 86 | 1011.1 |
| 20260505073603 | 51 | 347 | 5.0 | 9.0 | 0.00 | 0.02 | 0.00 | 86 | 1011.1 |
| 20260505072724 | 51 | 352 | 5.0 | 10.0 | 0.00 | 0.02 | 0.00 | 89 | 1011.1 |
| 20260505071803 | 50 | 355 | 3.0 | 6.0 | 0.00 | 0.02 | 0.00 | 90 | 1011.2 |
| 20260505070903 | 49 | 355 | 3.0 | 6.0 | 0.00 | 0.02 | 0.00 | 90 | 1011.2 |
| 20260505070024 | 49 | 355 | 3.0 | 6.0 | 0.00 | 0.02 | 0.00 | 91 | 1011.3 |
| 20260505065403 | 49 | 355 | 3.0 | 5.0 | 0.00 | 0.02 | 0.00 | 91 | 1011.4 |
| 20260505064503 | 49 | 355 | 3.0 | 5.0 | 0.00 | 0.02 | 0.00 | 91 | 1011.4 |
| 20260505063603 | 49 | 355 | 3.0 | 6.0 | 0.00 | 0.02 | 0.00 | 91 | 1011.4 |
| 20260505062703 | 49 | 355 | 2.0 | 6.0 | 0.00 | 0.02 | 0.00 | 92 | 1011.5 |
| 20260505061824 | 49 | 355 | 2.0 | 6.0 | 0.00 | 0.02 | 0.00 | 92 | 1011.5 |
| 20260505060903 | 49 | 355 | 3.0 | 9.0 | 0.00 | 0.02 | 0.00 | 92 | 1011.4 |
| 20260505060024 | 49 | 355 | 4.0 | 9.0 | 0.00 | 0.02 | 0.00 | 92 | 1011.4 |
| 20260505055403 | 49 | 355 | 4.0 | 6.0 | 0.00 | 0.02 | 0.00 | 92 | 1011.5 |
| 20260505054524 | 49 | 355 | 4.0 | 9.0 | 0.00 | 0.02 | 0.00 | 92 | 1011.3 |
| 20260505053603 | 49 | 355 | 4.0 | 8.0 | 0.00 | 0.02 | 0.00 | 92 | 1011.4 |
| 20260505052703 | 49 | 359 | 5.0 | 9.0 | 0.00 | 0.02 | 0.00 | 91 | 1011.3 |
| 20260505051803 | 49 | 12 | 4.0 | 8.0 | 0.00 | 0.02 | 0.00 | 92 | 1011.3 |
| 20260505050903 | 50 | 16 | 3.0 | 7.0 | 0.00 | 0.02 | 0.00 | 91 | 1011.4 |